Location: Linz
(48.3300°N, 14.3000°E)
Time: 06:49:20
(UTC+01:00)

OTV 5 (USA 277) - Pass Details

Date: 17 November 2017
Orbit: 404 x 417 km, 43.0° (Epoch: 07 September)

Event Time Altitude Azimuth Distance (km) Brightness Sun altitude
Exits shadow 05:42:03 18° 227° (SW) 1,054 ? -15.0°
Maximum altitude 05:43:13 22° 197° (SSW) 931 ? -14.8°
Drops below altitude 10° 05:45:50 10° 143° (SE) 1,453 ? -14.4°
Sets 05:48:12 0° 128° (SE) 2,310 ? -14.0°
